Location: Newark
(62.3167°N, 33.7333°E)
Time: 12:31:47
(UTC+00:00)

Envisat - Visible Passes

Search period start: 18 November 2019 00:00
Search period end: 28 November 2019 00:00
Orbit: 764 x 766 km, 98.1° (Epoch: 17 November)

Date Brightness Start Highest point End Pass type
(mag) Time Alt. Az. Time Alt. Az. Time Alt. Az.
18 Nov 5.9 03:14:37 10° NE 03:18:00 18° E 03:21:23 10° SE visible
18 Nov 3.5 04:52:56 10° NNE 04:58:02 67° ESE 05:03:06 10° S visible
18 Nov 3.0 14:39:33 10° SE 14:44:34 61° ENE 14:49:36 10° NNW visible
18 Nov 4.5 16:19:14 10° SSW 16:23:55 36° W 16:28:38 10° NNW visible
19 Nov 6.4 02:39:52 10° ENE 02:40:32 10° ENE 02:41:12 10° E visible
19 Nov 4.5 04:16:14 10° NNE 04:21:02 40° E 04:25:50 10° SSE visible
19 Nov 3.4 14:03:16 10° ESE 14:07:58 39° NE 14:12:42 10° NNW visible
19 Nov 3.6 15:41:52 10° S 15:46:54 60° WSW 15:51:58 10° NNW visible
19 Nov 5.8 17:23:58 10° WSW 17:27:01 16° W 17:30:05 10° NW visible
20 Nov 5.4 03:39:43 10° NNE 03:43:53 25° E 03:48:02 10° SE visible
20 Nov 2.9 15:04:57 10° SSE 15:10:02 85° ENE 15:15:10 10° NNW visible
20 Nov 5.2 16:45:29 10° SW 16:49:42 26° W 16:53:57 10° NNW visible
21 Nov 6.0 03:03:37 10° NE 03:06:33 15° E 03:09:27 10° ESE visible
21 Nov 3.8 04:41:40 10° NNE 04:46:43 57° ESE 04:51:43 10° S visible
21 Nov 3.1 14:28:24 10° SE 14:33:20 53° ENE 14:38:18 10° NNW visible
21 Nov 4.3 16:07:44 10° SSW 16:12:33 42° W 16:17:24 10° NNW visible
21 Nov 6.2 17:51:48 10° W 17:53:01 11° WNW 17:54:15 10° WNW visible
22 Nov 4.8 04:05:00 10° NNE 04:09:40 35° E 04:14:19 10° SSE visible
22 Nov 3.6 13:52:12 10° ESE 13:56:46 35° NE 14:01:22 10° N visible
22 Nov 3.3 15:30:30 10° S 15:35:34 70° WSW 15:40:42 10° NNW visible
22 Nov 5.7 17:12:04 10° SW 17:15:34 18° W 17:19:04 10° NW visible
23 Nov 5.6 03:28:34 10° NE 03:32:28 21° E 03:36:20 10° SE visible
23 Nov 3.2 05:07:09 10° NNE 05:12:18 81° ESE 05:17:24 10° SSW visible
23 Nov 2.9 14:53:41 10° SSE 14:58:46 74° ENE 15:03:52 10° NNW visible
23 Nov 4.9 16:33:52 10° SSW 16:38:17 30° W 16:42:46 10° NNW visible
24 Nov 6.1 02:52:45 10° NE 02:55:04 13° ENE 02:57:22 10° ESE visible
24 Nov 4.1 04:30:24 10° NNE 04:35:22 49° E 04:40:19 10° S visible
24 Nov 3.2 14:17:15 10° SE 14:22:06 47° ENE 14:26:59 10° NNW visible
24 Nov 4.0 15:56:17 10° S 16:01:13 49° W 16:06:10 10° NNW visible
24 Nov 6.1 17:39:17 10° WSW 17:41:32 13° WNW 17:43:46 10° NW visible
25 Nov 5.1 03:53:48 10° NNE 03:58:17 30° E 04:02:45 10° SSE visible
25 Nov 3.7 13:41:09 10° ESE 13:45:35 31° NE 13:50:02 10° N visible
25 Nov 3.1 15:19:10 10° SSE 15:24:17 80° WSW 15:29:25 10° NNW visible
25 Nov 5.4 17:00:17 10° SW 17:04:08 21° W 17:07:59 10° NW visible
26 Nov 5.8 03:17:29 10° NE 03:21:01 19° E 03:24:32 10° SE visible
26 Nov 3.4 04:55:53 10° NNE 05:00:59 70° ESE 05:06:05 10° S visible
26 Nov 3.0 14:42:29 10° SE 14:47:30 64° ENE 14:52:33 10° NNW visible
26 Nov 4.6 16:22:17 10° SSW 16:26:54 34° W 16:31:34 10° NNW visible
27 Nov 6.3 02:42:12 10° ENE 02:43:34 11° ENE 02:44:55 10° E visible
27 Nov 4.4 04:19:10 10° NNE 04:24:01 42° E 04:28:51 10° SSE visible
27 Nov 3.4 14:06:09 10° SE 14:10:53 41° ENE 14:15:39 10° NNW visible
27 Nov 3.7 15:44:51 10° S 15:49:52 57° WSW 15:54:54 10° NNW visible
27 Nov 5.9 17:27:11 10° WSW 17:30:03 15° W 17:32:55 10° NW visible
